Project,Study,Ord_Occ,Event_Num,Cast_ID,Date_Time_UTC,Date_Time_PST,Lat_Dec,Lon_Dec,Sta_ID,Line,Sta,Depth,Pressure,PrQ,Temp1,Temp1Q,Temp2,Temp2Q,TempAve,Salt1,Salt1Q,Salt1_Corr,Salt2,Salt2Q,Salt2_Corr,SaltAve_Corr,Ox1,Ox1Q,Ox1_CruiseCorr,Ox1_StaCorr,Ox2,Ox2Q,Ox2_CruiseCorr,Ox2_StaCorr,OxAve_StaCorr,Ox1uM,Ox1uM_CruiseCorr,Ox1uM_StaCorr,Ox2uM,Ox2uM_CruiseCorr,Ox2uM_StaCorr,OxAveuM_StaCorr,FluorV,FluorQ,EstChl_CruiseCorr,EstChl_StaCorr,ISUSV,ISUSQ,EstNO3_CruiseCorr,EstNO3_StaCorr,SigThetaTS1,SigThetaTS1Q,SigThetaTS2,SigThetaTS2Q,BAT,XMiss,TransQ,pH,pHQ,SPAR,SPARQ,PAR,PARQ,PoT1,PoT2,DynHt,SVA,OxSat1,OxSat2,BTL_Depth,BTL_Temp,SaltB,OxB,OxBuM,Chl-a,Phaeo,NO3,NO2,NH4,PO4,SIL
CalCOFI,2101RL,035,,2101_035d,23-Jan-2021 14:39:55,23-Jan-2021 06:39:55,33.82421,-118.63029,086.7 035.0,086.7,035.0,3.000,3.022,,15.2918,,15.2931,,15.2925,33.5480,,33.5538,33.5447,,33.5467,33.5503,5.5651,,5.8243,5.8247,5.4866,,5.8253,5.8073,5.8160,242.524,254.1343,210.2046,239.107,270.1429,208.7917,209.4982,0.0726,,0.3467,0.4068, ,, , ,24.7890,,24.7862,,0.8171,81.5237,,,,3.6947E+00,,1.0000E-12,,15.2914,15.2926,0.0061,314.952,97.456,96.083,3,,33.5408,5.801,252.92,0.451,-0.018,,,,,
CalCOFI,2101RL,035,,2101_035d,23-Jan-2021 14:40:04,23-Jan-2021 06:40:04,33.82422,-118.63030,086.7 035.0,086.7,035.0,4.000,4.029,,15.2921,,15.2950,,15.2936,33.5484,,33.5542,33.5451,,33.5471,33.5507,5.5688,,5.8282,5.8286,5.5082,,5.8483,5.8302,5.8294,242.686,254.3039,210.3328,240.046,270.3230,209.5397,209.9363,0.0682,,0.3106,0.4014, ,, , ,24.7893,,24.7861,,0.8156,81.5552,,,,3.6947E+00,,1.0000E-12,,15.2915,15.2944,0.0111,314.958,97.522,96.464,,,,,,,,,,,,
CalCOFI,2101RL,035,,2101_035d,23-Jan-2021 14:40:06,23-Jan-2021 06:40:06,33.82422,-118.63030,086.7 035.0,086.7,035.0,5.000,5.036,,15.2960,,15.2961,,15.2961,33.5484,,33.5542,33.5452,,33.5472,33.5507,5.5625,,5.8216,5.8220,5.5012,,5.8408,5.8228,5.8224,242.410,254.0150,210.1144,239.741,270.0161,209.2967,209.7056,0.0729,,0.3491,0.4071, ,, , ,24.7885,,24.7859,,0.8163,81.5415,,,,3.6947E+00,,1.0000E-12,,15.2952,15.2954,0.0143,315.064,97.419,96.344,,,,,,,,,,,,
CalCOFI,2101RL,035,,2101_035d,23-Jan-2021 14:40:08,23-Jan-2021 06:40:08,33.82422,-118.63030,086.7 035.0,086.7,035.0,6.000,6.043,,15.3011,,15.2989,,15.3000,33.5483,,33.5541,33.5452,,33.5472,33.5507,5.5628,,5.8219,5.8223,5.4948,,5.8340,5.8160,5.8192,242.426,254.0317,210.1271,239.464,270.0339,209.0761,209.6016,0.0740,,0.3582,0.4083, ,, , ,24.7873,,24.7854,,0.8164,81.5382,,,,3.6947E+00,,1.0000E-12,,15.3002,15.2980,0.0175,315.209,97.435,96.238,,,,,,,,,,,,
CalCOFI,2101RL,035,,2101_035d,23-Jan-2021 14:40:09,23-Jan-2021 06:40:09,33.82424,-118.63030,086.7 035.0,086.7,035.0,7.000,7.050,,15.2979,,15.2985,,15.2982,33.5484,,33.5542,33.5450,,33.5470,33.5506,5.5473,,5.8057,5.8062,5.5015,,5.8411,5.8231,5.8147,241.752,253.3262,209.5939,239.755,269.2844,209.3079,209.4509,0.0703,,0.3278,0.4041, ,, , ,24.7881,,24.7854,,0.8165,81.5362,,,,3.6947E+00,,1.0000E-12,,15.2968,15.2975,0.0207,315.160,97.158,96.354,,,,,,,,,,,,
CalCOFI,2101RL,035,,2101_035d,23-Jan-2021 14:40:11,23-Jan-2021 06:40:11,33.82424,-118.63030,086.7 035.0,086.7,035.0,8.000,8.058,,15.2941,,15.2945,,15.2943,33.5483,,33.5541,33.5451,,33.5471,33.5506,5.5516,,5.8102,5.8107,5.5067,,5.8467,5.8286,5.8197,241.937,253.5199,209.7402,239.979,269.4901,209.4863,209.6133,0.0723,,0.3442,0.4065, ,, , ,24.7889,,24.7863,,0.8169,81.5287,,,,3.6947E+00,,1.0000E-12,,15.2928,15.2933,0.0238,315.114,97.225,96.437,,,,,,,,,,,,
CalCOFI,2101RL,035,,2101_035d,23-Jan-2021 14:40:13,23-Jan-2021 06:40:13,33.82428,-118.63030,086.7 035.0,086.7,035.0,9.000,9.065,,15.2945,,15.2958,,15.2952,33.5483,,33.5541,33.5451,,33.5471,33.5506,5.5645,,5.8237,5.8241,5.5056,,5.8455,5.8274,5.8258,242.500,254.1092,210.1856,239.932,270.1162,209.4489,209.8173,0.0749,,0.3655,0.4092, ,, , ,24.7889,,24.7861,,0.8166,81.5345,,,,3.6947E+00,,1.0000E-12,,15.2931,15.2944,0.0270,315.152,97.452,96.420,,,,,,,,,,,,
CalCOFI,2101RL,035,,2101_035d,23-Jan-2021 14:40:14,23-Jan-2021 06:40:14,33.82428,-118.63030,086.7 035.0,086.7,035.0,10.000,10.072,,15.2946,,15.2949,,15.2948,33.5483,,33.5541,33.5450,,33.5470,33.5506,5.5786,,5.8385,5.8388,5.5108,,5.8510,5.8329,5.8359,243.113,254.7509,210.6706,240.161,270.7979,209.6313,210.1510,0.0721,,0.3426,0.4063, ,, , ,24.7888,,24.7863,,0.8171,81.5246,,,,3.6947E+00,,1.0000E-12,,15.2930,15.2934,0.0302,315.183,97.698,96.511,,,,,,,,,,,,
CalCOFI,2101RL,035,,2101_035d,23-Jan-2021 14:40:15,23-Jan-2021 06:40:15,33.82429,-118.63030,086.7 035.0,086.7,035.0,11.000,11.079,,15.2950,,15.2954,,15.2952,33.5483,,33.5541,33.5449,,33.5469,33.5505,5.5771,,5.8369,5.8373,5.5023,,5.8420,5.8239,5.8306,243.050,254.6849,210.6207,239.790,270.7278,209.3358,209.9783,0.0704,,0.3287,0.4043, ,, , ,24.7888,,24.7861,,0.8168,81.5303,,,,3.6947E+00,,1.0000E-12,,15.2934,15.2937,0.0334,315.223,97.674,96.362,11,,33.5392,5.830,254.17,0.381,0.058,,,,,
CalCOFI,2101RL,035,,2101_035d,23-Jan-2021 14:40:17,23-Jan-2021 06:40:17,33.82430,-118.63030,086.7 035.0,086.7,035.0,12.000,12.086,,15.2947,,15.2954,,15.2951,33.5479,,33.5537,33.5449,,33.5469,33.5503,5.5725,,5.8321,5.8325,5.5066,,5.8466,5.8285,5.8305,242.848,254.4735,210.4609,239.977,270.5032,209.4847,209.9728,0.0718,,0.3401,0.4059, ,, , ,24.7886,,24.7861,,0.8155,81.5578,,,,3.6947E+00,,1.0000E-12,,15.2929,15.2936,0.0365,315.269,97.592,96.438,,,,,,,,,,,,
CalCOFI,2101RL,035,,2101_035d,23-Jan-2021 14:40:19,23-Jan-2021 06:40:19,33.82430,-118.63032,086.7 035.0,086.7,035.0,13.000,13.094,,15.2941,,15.2949,,15.2945,33.5478,,33.5536,33.5446,,33.5466,33.5501,5.5595,,5.8185,5.8189,5.5145,,5.8550,5.8368,5.8279,242.283,253.8820,210.0140,240.320,269.8749,209.7579,209.8860,0.0737,,0.3557,0.4080, ,, , ,24.7886,,24.7860,,0.8154,81.5588,,,,3.6947E+00,,1.0000E-12,,15.2921,15.2929,0.0397,315.296,97.364,96.574,,,,,,,,,,,,
CalCOFI,2101RL,035,,2101_035d,23-Jan-2021 14:40:24,23-Jan-2021 06:40:24,33.82433,-118.63033,086.7 035.0,086.7,035.0,14.000,14.101,,15.2953,,15.2965,,15.2959,33.5480,,33.5538,33.5447,,33.5467,33.5503,5.5685,,5.8279,5.8283,5.5050,,5.8449,5.8268,5.8276,242.673,254.2903,210.3225,239.906,270.3086,209.4282,209.8754,0.0746,,0.3631,0.4089, ,, , ,24.7886,,24.7858,,0.8159,81.5494,,,,3.6947E+00,,1.0000E-12,,15.2932,15.2943,0.0429,315.334,97.523,96.411,,,,,,,,,,,,
CalCOFI,2101RL,035,,2101_035d,23-Jan-2021 14:40:35,23-Jan-2021 06:40:35,33.82435,-118.63037,086.7 035.0,086.7,035.0,15.000,15.108,,15.2944,,15.2957,,15.2951,33.5480,,33.5538,33.5448,,33.5468,33.5503,5.5611,,5.8201,5.8206,5.5079,,5.8479,5.8299,5.8253,242.353,253.9553,210.0693,240.035,269.9527,209.5309,209.8001,0.0751,,0.3672,0.4093, ,, , ,24.7888,,24.7861,,0.8143,81.5803,,,,3.6947E+00,,1.0000E-12,,15.2921,15.2935,0.0463,315.341,97.392,96.461,,,,,,,,,,,,
CalCOFI,2101RL,035,,2101_035d,23-Jan-2021 14:40:42,23-Jan-2021 06:40:42,33.82432,-118.63039,086.7 035.0,086.7,035.0,16.000,16.115,,15.2917,,15.2921,,15.2919,33.5478,,33.5536,33.5446,,33.5466,33.5501,5.5610,,5.8200,5.8205,5.5102,,5.8504,5.8323,5.8264,242.347,253.9490,210.0646,240.133,269.9461,209.6090,209.8368,0.0757,,0.3721,0.4099, ,, , ,24.7893,,24.7867,,0.8171,81.5246,,,,3.6947E+00,,1.0000E-12,,15.2893,15.2897,0.0495,315.326,97.385,96.494,,,,,,,,,,,,
CalCOFI,2101RL,035,,2101_035d,23-Jan-2021 14:40:47,23-Jan-2021 06:40:47,33.82432,-118.63042,086.7 035.0,086.7,035.0,17.000,17.123,,15.2944,,15.2941,,15.2943,33.5478,,33.5536,33.5446,,33.5466,33.5501,5.5758,,5.8355,5.8359,5.5101,,5.8503,5.8322,5.8341,242.990,254.6221,210.5733,240.129,270.6611,209.6058,210.0896,0.0797,,0.4049,0.4129, ,, , ,24.7888,,24.7864,,0.8146,81.5757,,,,3.6947E+00,,1.0000E-12,,15.2918,15.2915,0.0526,315.408,97.649,96.496,,,,,,,,,,,,
CalCOFI,2101RL,035,,2101_035d,23-Jan-2021 14:40:51,23-Jan-2021 06:40:51,33.82433,-118.63042,086.7 035.0,086.7,035.0,18.000,18.130,,15.2965,,15.2977,,15.2971,33.5479,,33.5537,33.5446,,33.5466,33.5502,5.5671,,5.8264,5.8268,5.5106,,5.8508,5.8327,5.8298,242.612,254.2264,210.2742,240.152,270.2407,209.6241,209.9492,0.0774,,0.3860,0.4113, ,, , ,24.7883,,24.7856,,0.8155,81.5571,,,,3.6947E+00,,1.0000E-12,,15.2938,15.2950,0.0558,315.480,97.501,96.512,,,,,,,,,,,,
CalCOFI,2101RL,035,,2101_035d,23-Jan-2021 14:40:54,23-Jan-2021 06:40:54,33.82435,-118.63042,086.7 035.0,086.7,035.0,19.000,19.137,,15.2992,,15.2990,,15.2991,33.5478,,33.5536,33.5445,,33.5465,33.5501,5.5697,,5.8291,5.8295,5.5108,,5.8510,5.8329,5.8312,242.725,254.3447,210.3636,240.159,270.3664,209.6297,209.9967,0.0802,,0.4090,0.4132, ,, , ,24.7877,,24.7853,,0.8154,81.5597,,,,3.6947E+00,,1.0000E-12,,15.2963,15.2961,0.0590,315.569,97.551,96.517,,,,,,,,,,,,
CalCOFI,2101RL,035,,2101_035d,23-Jan-2021 14:40:58,23-Jan-2021 06:40:58,33.82437,-118.63042,086.7 035.0,086.7,035.0,20.000,20.144,,15.2989,,15.2993,,15.2991,33.5478,,33.5536,33.5447,,33.5467,33.5502,5.5612,,5.8203,5.8207,5.4993,,5.8388,5.8207,5.8207,242.357,253.9595,210.0725,239.659,269.9572,209.2314,209.6520,0.0756,,0.3713,0.4098, ,, , ,24.7878,,24.7854,,0.8148,81.5705,,,,3.6947E+00,,1.0000E-12,,15.2959,15.2963,0.0622,315.590,97.402,96.317,,,,,,,,,,,,
CalCOFI,2101RL,035,,2101_035d,23-Jan-2021 14:41:01,23-Jan-2021 06:41:01,33.82439,-118.63042,086.7 035.0,086.7,035.0,21.000,21.152,,15.2990,,15.3002,,15.2996,33.5479,,33.5537,33.5446,,33.5466,33.5502,5.5622,,5.8213,5.8217,5.5022,,5.8419,5.8238,5.8228,242.397,254.0014,210.1041,239.787,270.0017,209.3334,209.7188,0.0785,,0.3950,0.4121, ,, , ,24.7879,,24.7851,,0.8154,81.5584,,,,3.6947E+00,,1.0000E-12,,15.2959,15.2971,0.0654,315.616,97.419,96.370,21,,33.5374,5.811,253.36,0.374,0.083,,,,,
CalCOFI,2101RL,035,,2101_035d,23-Jan-2021 14:41:04,23-Jan-2021 06:41:04,33.82441,-118.63042,086.7 035.0,086.7,035.0,22.000,22.159,,15.3023,,15.3026,,15.3025,33.5479,,33.5537,33.5448,,33.5468,33.5503,5.5708,,5.8303,5.8307,5.5114,,5.8517,5.8336,5.8322,242.775,254.3971,210.4032,240.187,270.4220,209.6520,210.0276,0.0774,,0.3860,0.4113, ,, , ,24.7873,,24.7848,,0.8158,81.5516,,,,3.6947E+00,,1.0000E-12,,15.2989,15.2993,0.0685,315.707,97.577,96.536,,,,,,,,,,,,
CalCOFI,2101RL,035,,2101_035d,23-Jan-2021 14:41:07,23-Jan-2021 06:41:07,33.82444,-118.63042,086.7 035.0,086.7,035.0,23.000,23.166,,15.3045,,15.3055,,15.3050,33.5479,,33.5537,33.5446,,33.5466,33.5502,5.5565,,5.8153,5.8158,5.4995,,5.8390,5.8210,5.8184,242.150,253.7428,209.9088,239.668,269.7270,209.2386,209.5737,0.0823,,0.4262,0.4142, ,, , ,24.7868,,24.7841,,0.8163,81.5395,,,,3.6947E+00,,1.0000E-12,,15.3010,15.3021,0.0717,315.780,97.330,96.332,,,,,,,,,,,,
CalCOFI,2101RL,035,,2101_035d,23-Jan-2021 14:41:09,23-Jan-2021 06:41:09,33.82446,-118.63042,086.7 035.0,086.7,035.0,24.000,24.174,,15.3001,,15.3017,,15.3009,33.5480,,33.5538,33.5447,,33.5467,33.5503,5.5599,,5.8189,5.8193,5.5026,,5.8423,5.8242,5.8218,242.297,253.8967,210.0250,239.801,269.8905,209.3445,209.6848,0.0789,,0.3983,0.4124, ,, , ,24.7879,,24.7850,,0.8159,81.5491,,,,3.6947E+00,,1.0000E-12,,15.2964,15.2981,0.0749,315.709,97.381,96.379,,,,,,,,,,,,
CalCOFI,2101RL,035,,2101_035d,23-Jan-2021 14:41:13,23-Jan-2021 06:41:13,33.82446,-118.63042,086.7 035.0,086.7,035.0,25.000,25.181,,15.3014,,15.3023,,15.3019,33.5479,,33.5537,33.5447,,33.5467,33.5502,5.5617,,5.8208,5.8212,5.4925,,5.8316,5.8135,5.8174,242.378,253.9815,210.0891,239.362,269.9805,208.9949,209.5420,0.0742,,0.3598,0.4085, ,, , ,24.7876,,24.7849,,0.8159,81.5489,,,,3.6947E+00,,1.0000E-12,,15.2976,15.2985,0.0781,315.771,97.416,96.203,,,,,,,,,,,,
CalCOFI,2101RL,035,,2101_035d,23-Jan-2021 14:41:15,23-Jan-2021 06:41:15,33.82445,-118.63041,086.7 035.0,086.7,035.0,26.000,26.188,,15.3049,,15.3059,,15.3054,33.5479,,33.5537,33.5446,,33.5466,33.5502,5.5627,,5.8218,5.8222,5.4963,,5.8356,5.8176,5.8199,242.421,254.0265,210.1231,239.527,270.0284,209.1263,209.6247,0.0793,,0.4016,0.4126, ,, , ,24.7868,,24.7840,,0.8166,81.5336,,,,3.6947E+00,,1.0000E-12,,15.3010,15.3019,0.0813,315.875,97.440,96.276,,,,,,,,,,,,
CalCOFI,2101RL,035,,2101_035d,23-Jan-2021 14:41:17,23-Jan-2021 06:41:17,33.82444,-118.63040,086.7 035.0,086.7,035.0,27.000,27.195,,15.3061,,15.3065,,15.3063,33.5480,,33.5538,33.5448,,33.5468,33.5503,5.5437,,5.8019,5.8024,5.4797,,5.8180,5.8000,5.8012,241.595,253.1618,209.4697,238.805,269.1098,208.5512,209.0105,0.0803,,0.4098,0.4132, ,, , ,24.7866,,24.7841,,0.8159,81.5496,,,,3.6947E+00,,1.0000E-12,,15.3020,15.3024,0.0844,315.921,97.110,95.987,,,,,,,,,,,,
CalCOFI,2101RL,035,,2101_035d,23-Jan-2021 14:41:20,23-Jan-2021 06:41:20,33.82442,-118.63040,086.7 035.0,086.7,035.0,28.000,28.203,,15.2287,,15.2418,,15.2353,33.5353,,33.5411,33.5344,,33.5364,33.5388,5.5348,,5.7926,5.7931,5.4428,,5.7788,5.7609,5.7770,241.204,252.7525,209.1604,237.197,268.6750,207.2704,208.2154,0.0936,,0.5188,0.4149, ,, , ,24.7939,,24.7903,,0.8198,81.4683,,,,3.6947E+00,,1.0000E-12,,15.2244,15.2375,0.0876,315.261,96.797,95.213,,,,,,,,,,,,
CalCOFI,2101RL,035,,2101_035d,23-Jan-2021 14:41:21,23-Jan-2021 06:41:21,33.82442,-118.63040,086.7 035.0,086.7,035.0,29.000,29.210,,15.1096,,15.1082,,15.1089,33.5174,,33.5232,33.5143,,33.5163,33.5198,5.5349,,5.7927,5.7933,5.4605,,5.7976,5.7796,5.7865,241.205,252.7536,209.1612,237.962,268.6761,207.8797,208.5205,0.1274,,0.7957,0.3659, ,, , ,24.8062,,24.8041,,0.8370,81.1190,,,,3.6947E+00,,1.0000E-12,,15.1052,15.1038,0.0908,314.111,96.559,95.256,,,,,,,,,,,,
CalCOFI,2101RL,035,,2101_035d,23-Jan-2021 14:41:25,23-Jan-2021 06:41:25,33.82442,-118.63040,086.7 035.0,086.7,035.0,30.000,30.217,,14.9649,,14.9637,,14.9643,33.4986,,33.5044,33.4947,,33.4967,33.5006,5.5180,,5.7750,5.7756,5.4699,,5.8076,5.7896,5.7826,240.465,251.9790,208.5758,238.371,267.8533,208.2055,208.3907,0.1452,,0.9416,0.3092, ,, , ,24.8232,,24.8204,,0.8505,80.8454,,,,3.6947E+00,,1.0000E-12,,14.9604,14.9592,0.0940,312.519,95.976,95.136,,,,,,,,,,,,
CalCOFI,2101RL,035,,2101_035d,23-Jan-2021 14:41:27,23-Jan-2021 06:41:27,33.82442,-118.63040,086.7 035.0,086.7,035.0,31.000,31.225,,14.8866,,14.8873,,14.8870,33.4899,,33.4957,33.4870,,33.4890,33.4924,5.5073,,5.7638,5.7645,5.4533,,5.7899,5.7720,5.7683,239.996,251.4880,208.2048,237.646,267.3317,207.6280,207.9164,0.1547,,1.0194,0.2703, ,, , ,24.8334,,24.8310,,0.8523,80.8097,,,,3.6947E+00,,1.0000E-12,,14.8820,14.8827,0.0971,311.569,95.636,94.698,,,,,,,,,,,,
CalCOFI,2101RL,035,,2101_035d,23-Jan-2021 14:41:28,23-Jan-2021 06:41:28,33.82444,-118.63040,086.7 035.0,086.7,035.0,32.000,32.232,,14.8260,,14.8267,,14.8264,33.4848,,33.4906,33.4817,,33.4837,33.4872,5.4921,,5.7479,5.7486,5.4375,,5.7732,5.7553,5.7520,239.330,250.7908,207.6779,236.954,266.5911,207.0769,207.3774,0.1674,,1.1235,0.2088, ,, , ,24.8426,,24.8401,,0.8500,80.8560,,,,3.6947E+00,,1.0000E-12,,14.8212,14.8219,0.1002,310.722,95.253,94.306,,,,,,,,,,,,
CalCOFI,2101RL,035,,2101_035d,23-Jan-2021 14:41:30,23-Jan-2021 06:41:30,33.82445,-118.63040,086.7 035.0,086.7,035.0,33.000,33.239,,14.7483,,14.7456,,14.7470,33.4792,,33.4850,33.4758,,33.4778,33.4814,5.4689,,5.7237,5.7244,5.4127,,5.7468,5.7290,5.7267,238.316,249.7294,206.8758,235.869,265.4635,206.2126,206.5442,0.1796,,1.2235,0.1395, ,, , ,24.8550,,24.8530,,0.8504,80.8481,,,,3.6947E+00,,1.0000E-12,,14.7434,14.7407,0.1034,309.565,94.699,93.720,,,,,,,,,,,,
CalCOFI,2101RL,035,,2101_035d,23-Jan-2021 14:41:32,23-Jan-2021 06:41:32,33.82446,-118.63040,086.7 035.0,086.7,035.0,34.000,34.247,,14.6655,,14.6652,,14.6654,33.4744,,33.4802,33.4712,,33.4732,33.4767,5.4560,,5.7101,5.7110,5.3858,,5.7183,5.7005,5.7058,237.753,249.1400,206.4304,234.693,264.8375,205.2759,205.8532,0.1844,,1.2628,0.1095, ,, , ,24.8690,,24.8667,,0.8499,80.8582,,,,3.6947E+00,,1.0000E-12,,14.6605,14.6601,0.1065,308.255,94.318,93.101,,,,,,,,,,,,
CalCOFI,2101RL,035,,2101_035d,23-Jan-2021 14:41:35,23-Jan-2021 06:41:35,33.82446,-118.63040,086.7 035.0,086.7,035.0,35.000,35.254,,14.6000,,14.6001,,14.6001,33.4764,,33.4822,33.4734,,33.4754,33.4788,5.4217,,5.6743,5.6752,5.3682,,5.6996,5.6818,5.6785,236.254,247.5709,205.2446,233.925,263.1706,204.6642,204.9544,0.1859,,1.2751,0.0998, ,, , ,24.8846,,24.8823,,0.8460,80.9366,,,,3.6947E+00,,1.0000E-12,,14.5949,14.5949,0.1096,306.795,93.602,92.678,,,,,,,,,,,,
CalCOFI,2101RL,035,,2101_035d,23-Jan-2021 14:41:37,23-Jan-2021 06:41:37,33.82447,-118.63040,086.7 035.0,086.7,035.0,36.000,36.261,,14.5730,,14.5734,,14.5732,33.4846,,33.4904,33.4814,,33.4834,33.4869,5.3985,,5.6500,5.6510,5.3275,,5.6563,5.6387,5.6449,235.243,246.5126,204.4448,232.145,262.0463,203.2464,203.8456,0.1866,,1.2808,0.0953, ,, , ,24.8968,,24.8942,,0.8488,80.8806,,,,3.6947E+00,,1.0000E-12,,14.5677,14.5682,0.1126,305.670,93.157,91.929,,,,,,,,,,,,
CalCOFI,2101RL,035,,2101_035d,23-Jan-2021 14:41:39,23-Jan-2021 06:41:39,33.82448,-118.63040,086.7 035.0,086.7,035.0,37.000,37.269,,14.5421,,14.5429,,14.5425,33.4884,,33.4942,33.4851,,33.4871,33.4907,5.3053,,5.5524,5.5538,5.2703,,5.5956,5.5781,5.5660,231.175,242.2542,201.2267,229.651,257.5226,201.2599,201.2433,0.1911,,1.3177,0.0651, ,, , ,24.9062,,24.9036,,0.8500,80.8564,,,,3.6947E+00,,1.0000E-12,,14.5367,14.5374,0.1157,304.795,91.493,90.888,,,,,,,,,,,,
CalCOFI,2101RL,035,,2101_035d,23-Jan-2021 14:41:41,23-Jan-2021 06:41:41,33.82449,-118.63040,086.7 035.0,086.7,035.0,38.000,38.276,,14.4787,,14.4739,,14.4763,33.4889,,33.4947,33.4867,,33.4887,33.4917,5.1634,,5.4039,5.4058,5.1552,,5.4733,5.4562,5.4310,224.989,235.7787,196.3331,224.635,250.6437,197.2646,196.7989,0.1969,,1.3652,0.0242, ,, , ,24.9201,,24.9195,,0.8517,80.8207,,,,3.6947E+00,,1.0000E-12,,14.4731,14.4683,0.1188,303.500,88.933,88.783,38,,33.4800,, ,0.001,0.006,,,,,
CalCOFI,2101RL,035,,2101_035d,23-Jan-2021 14:41:43,23-Jan-2021 06:41:43,33.82450,-118.63040,086.7 035.0,086.7,035.0,39.000,39.283,,14.2506,,14.2452,,14.2479,33.4818,,33.4876,33.4792,,33.4812,33.4844,5.1318,,5.3708,5.3728,5.1022,,5.4170,5.4000,5.3864,223.606,234.3310,195.2390,222.315,249.1058,195.4167,195.3279,0.1893,,1.3029,0.0773, ,, , ,24.9628,,24.9620,,0.8480,80.8968,,,,3.6947E+00,,1.0000E-12,,14.2450,14.2396,0.1218,299.448,87.980,87.461,,,,,,,,,,,,
CalCOFI,2101RL,035,,2101_035d,23-Jan-2021 14:41:45,23-Jan-2021 06:41:45,33.82452,-118.63040,086.7 035.0,086.7,035.0,40.000,40.291,,14.1312,,14.1312,,14.1312,33.4750,,33.4808,33.4719,,33.4739,33.4774,5.1115,,5.3496,5.3517,5.0905,,5.4046,5.3876,5.3697,222.717,233.4004,194.5357,221.802,248.1172,195.0081,194.7719,0.1870,,1.2841,0.0926, ,, , ,24.9826,,24.9802,,0.8391,81.0762,,,,3.6947E+00,,1.0000E-12,,14.1255,14.1255,0.1248,297.588,87.417,87.056,,,,,,,,,,,,
CalCOFI,2101RL,035,,2101_035d,23-Jan-2021 14:41:47,23-Jan-2021 06:41:47,33.82453,-118.63040,086.7 035.0,086.7,035.0,41.000,41.298,,14.0685,,14.0709,,14.0697,33.4757,,33.4815,33.4733,,33.4753,33.4784,5.0432,,5.2781,5.2804,5.0277,,5.3379,5.3211,5.3008,219.737,230.2809,192.1783,219.063,244.8034,192.8264,192.5024,0.1829,,1.2505,0.1191, ,, , ,24.9963,,24.9939,,0.8318,81.2255,,,,3.6947E+00,,1.0000E-12,,14.0626,14.0650,0.1278,296.312,86.140,85.878,,,,,,,,,,,,
CalCOFI,2101RL,035,,2101_035d,23-Jan-2021 14:41:49,23-Jan-2021 06:41:49,33.82454,-118.63040,086.7 035.0,086.7,035.0,42.000,42.306,,13.9468,,13.9522,,13.9495,33.4692,,33.4750,33.4669,,33.4689,33.4720,4.8006,,5.0242,5.0274,4.8419,,5.1406,5.1242,5.0758,209.164,219.2131,183.8143,210.961,233.0460,186.3730,185.0937,0.1659,,1.1112,0.2166, ,, , ,25.0165,,25.0136,,0.8245,81.3738,,,,3.6947E+00,,1.0000E-12,,13.9408,13.9462,0.1308,294.405,81.791,82.501,,,,,,,,,,,,
CalCOFI,2101RL,035,,2101_035d,23-Jan-2021 14:41:51,23-Jan-2021 06:41:51,33.82456,-118.63040,086.7 035.0,086.7,035.0,43.000,43.313,,13.6952,,13.6884,,13.6918,33.4637,,33.4695,33.4621,,33.4641,33.4668,4.6750,,4.8928,4.8964,4.6883,,4.9774,4.9615,4.9290,203.680,213.4724,179.4760,204.261,226.9478,181.0364,180.2562,0.1529,,1.0047,0.2781, ,, , ,25.0640,,25.0642,,0.8084,81.7020,,,,3.6947E+00,,1.0000E-12,,13.6892,13.6824,0.1337,289.894,79.241,79.456,,,,,,,,,,,,
CalCOFI,2101RL,035,,2101_035d,23-Jan-2021 14:41:53,23-Jan-2021 06:41:53,33.82456,-118.63040,086.7 035.0,086.7,035.0,44.000,44.320,,13.4848,,13.4787,,13.4818,33.4661,,33.4719,33.4634,,33.4654,33.4687,4.6236,,4.8390,4.8428,4.6106,,4.8949,4.8792,4.8610,201.431,211.1182,177.6969,200.865,224.4468,178.3314,178.0142,0.1414,,0.9104,0.3231, ,, , ,25.1088,,25.1079,,0.7937,82.0020,,,,3.6947E+00,,1.0000E-12,,13.4787,13.4726,0.1366,285.650,78.034,77.804,,,,,,,,,,,,
CalCOFI,2101RL,035,,2101_035d,23-Jan-2021 14:41:55,23-Jan-2021 06:41:55,33.82456,-118.63040,086.7 035.0,086.7,035.0,45.000,45.328,,13.3268,,13.3284,,13.3276,33.4605,,33.4663,33.4577,,33.4597,33.4630,4.6448,,4.8611,4.8649,4.5993,,4.8829,4.8672,4.8661,202.350,212.0802,178.4239,200.367,225.4688,177.9347,178.1793,0.1365,,0.8703,0.3396, ,, , ,25.1364,,25.1339,,0.7843,82.1958,,,,3.6947E+00,,1.0000E-12,,13.3206,13.3222,0.1395,283.039,78.136,77.371,,,,,,,,,,,,
CalCOFI,2101RL,035,,2101_035d,23-Jan-2021 14:41:57,23-Jan-2021 06:41:57,33.82456,-118.63040,086.7 035.0,086.7,035.0,46.000,46.335,,13.2949,,13.2960,,13.2955,33.4587,,33.4645,33.4555,,33.4575,33.4610,4.6308,,4.8465,4.8503,4.5995,,4.8831,4.8674,4.8589,201.740,211.4416,177.9413,200.377,224.7904,177.9427,177.9420,0.1325,,0.8375,0.3518, ,, , ,25.1415,,25.1388,,0.7807,82.2692,,,,3.6947E+00,,1.0000E-12,,13.2885,13.2897,0.1424,282.578,77.849,77.323,,,,,,,,,,,,
CalCOFI,2101RL,035,,2101_035d,23-Jan-2021 14:41:59,23-Jan-2021 06:41:59,33.82456,-118.63040,086.7 035.0,086.7,035.0,47.000,47.342,,13.2704,,13.2746,,13.2725,33.4594,,33.4652,33.4562,,33.4582,33.4617,4.5950,,4.8090,4.8130,4.5590,,4.8401,4.8245,4.8188,200.180,209.8086,176.7072,198.613,223.0557,176.5377,176.6225,0.1339,,0.8490,0.3477, ,, , ,25.1469,,25.1436,,0.7774,82.3371,,,,3.6947E+00,,1.0000E-12,,13.2639,13.2681,0.1452,282.083,77.209,76.609,,,,,,,,,,,,
CalCOFI,2101RL,035,,2101_035d,23-Jan-2021 14:42:01,23-Jan-2021 06:42:01,33.82458,-118.63040,086.7 035.0,086.7,035.0,48.000,48.350,,13.2140,,13.2179,,13.2160,33.4580,,33.4638,33.4550,,33.4570,33.4604,4.4925,,4.7018,4.7061,4.4823,,4.7587,4.7432,4.7247,195.713,205.1326,173.1735,195.267,218.0883,173.8725,173.5230,0.1258,,0.7826,0.3699, ,, , ,25.1571,,25.1540,,0.7765,82.3548,,,,3.6947E+00,,1.0000E-12,,13.2075,13.2113,0.1480,281.135,75.399,75.231,,,,,,,,,,,,
CalCOFI,2101RL,035,,2101_035d,23-Jan-2021 14:42:03,23-Jan-2021 06:42:03,33.82458,-118.63040,086.7 035.0,086.7,035.0,49.000,49.357,,13.1577,,13.1560,,13.1569,33.4579,,33.4637,33.4553,,33.4573,33.4605,4.3140,,4.5149,4.5199,4.3489,,4.6170,4.6019,4.5609,187.934,196.9895,167.0197,189.455,209.4380,169.2432,168.1315,0.1250,,0.7761,0.3719, ,, , ,25.1683,,25.1667,,0.7723,82.4428,,,,3.6947E+00,,1.0000E-12,,13.1510,13.1493,0.1509,280.091,72.319,72.900,,,,,,,,,,,,
CalCOFI,2101RL,035,,2101_035d,23-Jan-2021 14:42:05,23-Jan-2021 06:42:05,33.82458,-118.63042,086.7 035.0,086.7,035.0,50.000,50.365,,12.9511,,12.9502,,12.9507,33.4719,,33.4777,33.4702,,33.4722,33.4750,4.2833,,4.4828,4.4879,4.2745,,4.5379,4.5230,4.5055,186.588,195.5805,165.9549,186.205,207.9412,166.6545,166.3047,0.1185,,0.7228,0.3862, ,, , ,25.2202,,25.2191,,0.7627,82.6401,,,,3.6947E+00,,1.0000E-12,,12.9443,12.9434,0.1537,275.167,71.505,71.357,,,,,,,,,,,,
CalCOFI,2101RL,035,,2101_035d,23-Jan-2021 14:42:07,23-Jan-2021 06:42:07,33.82459,-118.63042,086.7 035.0,086.7,035.0,51.000,51.372,,12.8263,,12.8247,,12.8255,33.4853,,33.4911,33.4822,,33.4842,33.4877,4.2608,,4.4593,4.4645,4.2353,,4.4963,4.4815,4.4730,185.599,194.5452,165.1725,184.490,206.8414,165.2885,165.2305,0.1104,,0.6564,0.4001, ,, , ,25.2552,,25.2531,,0.7560,82.7790,,,,3.6947E+00,,1.0000E-12,,12.8194,12.8178,0.1564,271.859,70.952,70.524,51,,33.5006,4.346,189.48,0.518,0.296,,,,,
CalCOFI,2101RL,035,,2101_035d,23-Jan-2021 14:42:09,23-Jan-2021 06:42:09,33.82460,-118.63042,086.7 035.0,086.7,035.0,52.000,52.380,,12.7627,,12.7641,,12.7634,33.4884,,33.4942,33.4853,,33.4873,33.4908,4.1888,,4.3839,4.3894,4.1782,,4.4357,4.4210,4.4052,182.459,191.2583,162.6885,182.000,203.3497,163.3051,162.9968,0.1050,,0.6122,0.4070, ,, , ,25.2701,,25.2674,,0.7517,82.8678,,,,3.6947E+00,,1.0000E-12,,12.7558,12.7572,0.1591,270.459,69.662,69.487,,,,,,,,,,,,